User: anonymous   Login
Location: ??
(34.9170°N, 135.5016°E)
Time: 18:47:59
(UTC+00:00)
Language:

A-11 Canister half - Orbit

View from above orbital plane
View from above orbital plane
View from above satellite
View from above satellite

Ground track
Ground track

The orbit data is extracted from the following two-line orbital elements,

1 00051U 60009C   21058.90776740  .00000032  00000-0  11281-2 0  9997
2 00051  47.2117 277.1124 0105038 202.0406 157.5845 12.18271981695235
Epoch (UTC): 27 February 2021 21:47:11
Eccentricity: 0.0105038
inclination: 47.2117°
perigee height: 1516 km
apogee height: 1684 km
right ascension of ascending node: 277.1124°
argument of perigee: 202.0406°
revolutions per day: 12.18271981
mean anomaly at epoch: 157.5845°
orbit number at epoch: 69523

The dashed part of the orbit path shows where the satellite is in the earth's shadow,  

DLR